User: anonymous   Login
Location: Unspecified
(0.0000°N, 0.0000°E)
Time: 11:56:25
(UTC+00:00)
Language:

USA 270 - Orbit

View from above orbital plane
View from above orbital plane
View from above satellite
View from above satellite

Ground track
Ground track

The orbit data is extracted from the following two-line orbital elements,

1 41744U 16052A   17256.02510763 0.00000000  00000-0  00000-0 0    02
2 41744   0.0106 104.3026 0006777   3.8256 356.1884  1.00385722    09
Epoch (UTC): 13 September 2017 00:36:09
Eccentricity: 0.0006777
inclination: 0.0106°
perigee height: 35726 km
apogee height: 35783 km
right ascension of ascending node: 104.3026°
argument of perigee: 3.8256°
revolutions per day: 1.00385722
mean anomaly at epoch: 356.1884°
orbit number at epoch: 0

The dashed part of the orbit path shows where the satellite is in the earth's shadow,  

DLR